Location: Maddington
(51.2000°N, 1.9167°W)
Time: 12:34:55
(UTC+00:00)

ATLAS 3B R/B - Pass Details

Date: 18 September 2020
Orbit: 1016 x 1179 km, 63.8° (Epoch: 04 October)

Event Time Altitude Azimuth Distance (km) Brightness Sun altitude
Rises 21:19:46 0° 315° (NW) 3,818 6.9 -27.2°
Reaches altitude 10° 21:22:21 10° 316° (NW) 2,880 5.9 -27.5°
Maximum altitude 21:29:12 84° 46° (NE) 1,096 2.6 -28.3°
Enters shadow 21:30:03 71° 120° (ESE) 1,148 2.5 -28.4°
